Fort Stewart, GA

2:06 PM EST on February 20, 2017 (GMT -0500)
Wright Army Air Field

Weather History for KLHW - June, 2012

Change the Weather History Date:

Tuesday, June 5, 2012

  Actual Average Record
Temperature  
Mean Temperature 74 °F -  
Max Temperature 84 °F 88 °F 100 °F (1985)
Min Temperature 66 °F 66 °F 58 °F (1966)
Cooling Degree Days 9    
Growing Degree Days 24 (Base 50)    
Moisture  
Dew Point 70 °F    
Average Humidity 91    
Maximum Humidity 100    
Minimum Humidity 64    
Precipitation  
Precipitation 0.70 in - - ()
Sea Level Pressure  
Sea Level Pressure 29.79 in    
Wind  
Wind Speed 5 mph (North)    
Max Wind Speed 15 mph    
Max Gust Speed -    
Visibility 8 miles    
Events Rain , Thunderstorm    
Averages and records for this station are not official NWS values.
T = Trace of Precipitation, MM = Missing Value Source: NWS Daily Summary

Daily Weather History Graph

Daily Weather History Graph

Search for Another Location

Airport or City:

Trip Planner

Search our weather history database for the weather conditions in past years. The results will help you decide how hot, cold, wet, or windy it might be!

Date:

Astronomy

Jun. 05, 2012 Rise Set
Actual Time 6:20 AM EDT 8:29 PM EDT
Civil Twilight 5:52 AM EDT 8:57 PM EDT
Nautical Twilight 5:18 AM EDT 9:31 PM EDT
Astronomical Twilight 4:41 AM EDT 10:08 PM EDT
Moon 9:55 PM EDT (6/5) 7:29 AM EDT (6/5)
Length of Visible Light 15h 05m
Length of Day
14h 09m
Full, 98% of the Moon is Illuminated
Jun 5
Full
Jun 11
Last Quarter
Jun 19
New
Jun 26
First Quarter
Jul 3
Full

Hourly Weather History & Observations

Time (EDT) Temp. Heat Index Dew Point Humidity Pressure Visibility Wind Dir Wind Speed Gust Speed Precip Events Conditions
12:55 AM 71.1 °F - 68.5 °F 92% 29.75 in 7.0 mi Calm Calm - N/A   Clear
1:01 AM 69.8 °F - 68.0 °F 94% 29.75 in 4.0 mi Calm Calm - N/A   Clear
1:02 AM 69.8 °F - 68.0 °F 94% 29.74 in 4.0 mi Calm Calm - N/A   Clear
1:55 AM 69.1 °F - 68.0 °F 96% 29.75 in 10.0 mi Calm Calm - N/A   Clear
2:55 AM 68.9 °F - 67.6 °F 96% 29.75 in 10.0 mi West 5.8 mph - N/A   Clear
3:55 AM 70.0 °F - 66.2 °F 88% 29.74 in 10.0 mi WNW 3.5 mph - N/A   Clear
4:55 AM 68.7 °F - 66.0 °F 91% 29.73 in 10.0 mi Calm Calm - N/A   Clear
5:55 AM 68.4 °F - 66.2 °F 93% 29.74 in 10.0 mi West 3.5 mph - N/A   Clear
6:55 AM 68.9 °F - 66.6 °F 92% 29.75 in 10.0 mi West 3.5 mph - N/A   Clear
7:55 AM 72.7 °F - 68.0 °F 85% 29.79 in 10.0 mi WSW 8.1 mph - N/A   Mostly Cloudy
8:55 AM 73.2 °F - 67.6 °F 83% 29.80 in 10.0 mi West 3.5 mph - N/A   Mostly Cloudy
9:55 AM 77.2 °F - 68.4 °F 74% 29.80 in 10.0 mi West 5.8 mph - N/A   Partly Cloudy
10:41 AM 78.8 °F - 68.0 °F 69% 29.80 in 10.0 mi West 4.6 mph - N/A Rain Light Rain
10:51 AM 78.8 °F - 69.8 °F 74% 29.80 in 10.0 mi WSW 8.1 mph - N/A   Mostly Cloudy
10:55 AM 79.7 °F - 69.3 °F 70% 29.79 in 10.0 mi WSW 8.1 mph - 0.00 in   Mostly Cloudy
10:56 AM 78.8 °F - 69.8 °F 74% 29.80 in 10.0 mi WSW 8.1 mph - N/A Rain Light Rain
11:02 AM 78.8 °F - 69.8 °F 74% 29.80 in 10.0 mi West 8.1 mph - N/A   Light Drizzle
11:17 AM 80.6 °F 83.2 °F 68.0 °F 65% 29.79 in 10.0 mi West 5.8 mph - N/A   Mostly Cloudy
11:55 AM 81.7 °F 84.7 °F 68.5 °F 64% 29.79 in 10.0 mi West 6.9 mph - 0.00 in   Scattered Clouds
12:55 PM 81.9 °F 85.0 °F 68.5 °F 64% 29.78 in 10.0 mi NW 6.9 mph - N/A   Mostly Cloudy
1:42 PM 82.4 °F 86.3 °F 69.8 °F 66% 29.76 in 10.0 mi North 9.2 mph - N/A Thunderstorm Thunderstorm
1:49 PM 82.4 °F 86.3 °F 69.8 °F 66% 29.76 in 10.0 mi North 8.1 mph - N/A Rain , Thunderstorm Light Thunderstorms and Rain
1:55 PM 81.3 °F 84.8 °F 70.0 °F 68% 29.76 in 10.0 mi North 5.8 mph - 0.00 in Rain , Thunderstorm Light Thunderstorms and Rain
2:21 PM 75.2 °F - 71.6 °F 89% 29.78 in 2.5 mi West 3.5 mph - N/A Rain , Thunderstorm Heavy Thunderstorms and Rain
2:28 PM 75.2 °F - 71.6 °F 89% 29.77 in 3.0 mi Calm Calm - N/A Rain , Thunderstorm Thunderstorms and Rain
2:35 PM 75.2 °F - 71.6 °F 89% 29.77 in 8.0 mi North 3.5 mph - N/A   Light Drizzle
2:37 PM 75.2 °F - 71.6 °F 89% 29.77 in 10.0 mi NNW 4.6 mph - N/A   Scattered Clouds
2:45 PM 75.2 °F - 73.4 °F 94% 29.78 in 10.0 mi NNW 5.8 mph - N/A Thunderstorm Thunderstorm
2:48 PM 75.2 °F - 73.4 °F 94% 29.78 in 10.0 mi NNW 3.5 mph - N/A Rain , Thunderstorm Light Thunderstorms and Rain
2:55 PM 74.7 °F - 73.2 °F 95% 29.79 in 9.0 mi WNW 4.6 mph - 0.14 in Rain , Thunderstorm Light Thunderstorms and Rain
2:59 PM 75.2 °F - 73.4 °F 94% 29.79 in 9.0 mi NW 8.1 mph - N/A Rain , Thunderstorm Light Thunderstorms and Rain
3:08 PM 75.2 °F - 73.4 °F 94% 29.79 in 9.0 mi North 4.6 mph - N/A Rain , Thunderstorm Light Rain
3:10 PM 75.2 °F - 73.4 °F 94% 29.80 in 9.0 mi Calm Calm - N/A Rain , Thunderstorm Light Rain
3:12 PM 75.2 °F - 73.4 °F 94% 29.80 in 8.0 mi Calm Calm - N/A Rain , Thunderstorm Thunderstorms and Rain
3:27 PM 75.2 °F - 73.4 °F 94% 29.79 in 5.0 mi ESE 3.5 mph - N/A Rain Heavy Rain
3:31 PM 75.2 °F - 73.4 °F 94% 29.78 in 6.0 mi East 4.6 mph - N/A Rain , Thunderstorm Thunderstorms and Rain
3:46 PM 73.4 °F - 73.4 °F 100% 29.79 in 9.0 mi Variable 3.5 mph - N/A Rain Rain
3:48 PM 73.4 °F - 73.4 °F 100% 29.79 in 9.0 mi South 4.6 mph - N/A Rain Light Rain
3:55 PM 73.6 °F - 72.5 °F 96% 29.79 in 7.0 mi SSE 4.6 mph - 0.09 in Rain Light Rain
4:10 PM 73.4 °F - 71.6 °F 94% 29.81 in 7.0 mi South 3.5 mph - N/A Rain Light Rain
4:23 PM 71.6 °F - 71.6 °F 100% 29.81 in 8.0 mi SSW 3.5 mph - N/A Rain Light Rain
4:30 PM 71.6 °F - 71.6 °F 100% 29.79 in 5.0 mi ESE 5.8 mph - N/A Rain Rain
4:37 PM 71.6 °F - 71.6 °F 100% 29.77 in 5.0 mi Calm Calm - N/A Rain Light Rain
4:40 PM 71.6 °F - 71.6 °F 100% 29.76 in 6.0 mi North 6.9 mph - N/A Rain Rain
4:41 PM 71.6 °F - 71.6 °F 100% 29.75 in 6.0 mi NNE 8.1 mph - N/A Rain Heavy Rain
4:43 PM 71.6 °F - 71.6 °F 100% 29.75 in 6.0 mi NE 10.4 mph - N/A Rain Rain
4:46 PM 71.6 °F - 71.6 °F 100% 29.74 in 7.0 mi NE 9.2 mph - N/A Rain Light Rain
4:52 PM 71.6 °F - 71.6 °F 100% 29.73 in 10.0 mi ENE 10.4 mph - N/A Rain Light Rain
4:55 PM 72.5 °F - 72.3 °F 99% 29.74 in 10.0 mi ENE 9.2 mph - 0.08 in Rain Light Rain
4:56 PM 71.6 °F - 71.6 °F 100% 29.74 in 10.0 mi ENE 8.1 mph - N/A   Mostly Cloudy
5:19 PM 71.6 °F - 69.8 °F 94% 29.78 in 10.0 mi East 6.9 mph - N/A   Mostly Cloudy
5:43 PM 71.6 °F - 69.8 °F 94% 29.77 in 10.0 mi ESE 5.8 mph - N/A   Mostly Cloudy
5:48 PM 71.6 °F - 69.8 °F 94% 29.77 in 10.0 mi East 4.6 mph - N/A   Mostly Cloudy
5:55 PM 72.1 °F - 70.5 °F 95% 29.77 in 10.0 mi East 5.8 mph - N/A   Mostly Cloudy
6:08 PM 71.6 °F - 69.8 °F 94% 29.82 in 10.0 mi WNW 11.5 mph - N/A Rain Light Rain
6:14 PM 71.6 °F - 69.8 °F 94% 29.82 in 4.0 mi NW 6.9 mph - N/A Rain Heavy Rain
6:16 PM 71.6 °F - 69.8 °F 94% 29.81 in 2.5 mi North 5.8 mph - N/A Rain Heavy Rain
6:17 PM 71.6 °F - 69.8 °F 94% 29.82 in 2.5 mi NNW 6.9 mph - N/A Rain Heavy Rain
6:19 PM 71.6 °F - 69.8 °F 94% 29.82 in 2.0 mi NNW 8.1 mph - N/A Rain Heavy Rain
6:20 PM 71.6 °F - 69.8 °F 94% 29.83 in 2.0 mi NNW 10.4 mph - N/A Rain Heavy Rain
6:22 PM 71.6 °F - 69.8 °F 94% 29.83 in 2.0 mi NW 11.5 mph - N/A Rain , Thunderstorm Heavy Thunderstorms and Rain
6:23 PM 71.6 °F - 69.8 °F 94% 29.83 in 1.8 mi NW 12.7 mph - N/A Rain , Thunderstorm Heavy Thunderstorms and Rain
6:24 PM 71.6 °F - 69.8 °F 94% 29.83 in 1.5 mi NW 11.5 mph - N/A Rain , Thunderstorm Heavy Thunderstorms and Rain
6:31 PM 69.8 °F - 69.8 °F 100% 29.79 in 1.8 mi NNE 11.5 mph - N/A Rain , Thunderstorm Heavy Thunderstorms and Rain
6:33 PM 69.8 °F - 68.0 °F 94% 29.78 in 2.5 mi NE 15.0 mph - N/A Rain , Thunderstorm Heavy Thunderstorms and Rain
6:34 PM 69.8 °F - 68.0 °F 94% 29.78 in 3.0 mi NE 15.0 mph - N/A Rain , Thunderstorm Heavy Thunderstorms and Rain
6:37 PM 69.8 °F - 68.0 °F 94% 29.78 in 6.0 mi NE 10.4 mph - N/A Rain , Thunderstorm Light Rain
6:55 PM 70.2 °F - 68.9 °F 96% 29.76 in 7.0 mi NNE 11.5 mph - 0.30 in Rain Heavy Rain
7:14 PM 68.0 °F - 68.0 °F 100% 29.77 in 10.0 mi North 9.2 mph - N/A Rain Light Rain
7:42 PM 68.0 °F - 68.0 °F 100% 29.80 in 10.0 mi SE 4.6 mph - N/A   Mostly Cloudy
7:49 PM 68.0 °F - 68.0 °F 100% 29.82 in 10.0 mi Calm Calm - N/A   Mostly Cloudy
7:55 PM 68.2 °F - 67.1 °F 96% 29.83 in 10.0 mi Calm Calm - 0.03 in   Mostly Cloudy
8:55 PM 68.0 °F - 67.5 °F 98% 29.83 in 10.0 mi Calm Calm - N/A   Mostly Cloudy
9:53 PM 68.0 °F - 68.0 °F 100% 29.84 in 10.0 mi East 4.6 mph - N/A   Overcast
9:55 PM 67.5 °F - 67.5 °F 100% 29.83 in 10.0 mi East 4.6 mph - N/A   Overcast
10:07 PM 68.0 °F - 66.2 °F 94% 29.85 in 10.0 mi Calm Calm - N/A   Overcast
10:31 PM 68.0 °F - 66.2 °F 94% 29.86 in 10.0 mi North 4.6 mph - N/A Rain Light Rain
10:46 PM 68.0 °F - 66.2 °F 94% 29.85 in 6.0 mi North 4.6 mph - N/A Rain Rain
10:51 PM 68.0 °F - 66.2 °F 94% 29.84 in 4.0 mi NE 6.9 mph - N/A Rain Rain
10:55 PM 67.3 °F - 66.9 °F 99% 29.84 in 4.0 mi ENE 6.9 mph - 0.04 in Rain Light Rain
11:25 PM 68.0 °F - 66.2 °F 94% 29.82 in 10.0 mi East 10.4 mph - N/A   Overcast
11:26 PM 68.0 °F - 66.2 °F 94% 29.82 in 10.0 mi East 9.2 mph - N/A Rain Light Rain
11:37 PM 66.2 °F - 66.2 °F 100% 29.82 in 10.0 mi NE 4.6 mph - N/A   Mostly Cloudy
11:55 PM 66.9 °F - 66.6 °F 99% 29.83 in 10.0 mi NNE 3.5 mph - 0.02 in   Scattered Clouds